Theta_e
331 332 333 334 336 336 339 337 338 338 338 341 340 342 341 342 350 350 349 354 356 357 360 364 364 365 364 362 363 362 360 361 363 362 362 360 358 357 356 357 357 357 356 356 358 357 360 361 359 358 362 367 363 362 361 360 360 359 359 364 363 359 359
330 330 331 332 334 335 336 339 338 339 340 339 339 343 341 340 342 341 348 351 352 356 357 360 364 362 358 359 356 360 363 361 361 363 363 362 360 358 358 357 356 354 355 357 358 362 362 362 360 358 365 366 361 361 360 361 360 360 358 360 360 361 359
329 328 331 331 332 336 336 337 339 339 340 339 339 339 340 343 341 346 347 347 352 355 355 358 363 357 358 359 357 357 355 354 357 362 361 360 361 361 359 359 357 355 358 359 361 359 361 359 360 359 361 360 358 359 360 358 359 358 359 362 362 360 363
334 332 333 334 335 338 338 339 340 340 339 340 339 340 340 342 341 346 351 352 351 352 355 357 359 356 353 354 354 355 354 353 353 351 357 361 362 362 361 360 360 360 359 358 359 360 359 359 360 360 363 361 361 359 359 358 358 358 359 361 361 360 364
334 335 336 336 335 335 336 337 338 342 338 338 339 341 339 339 344 348 347 352 354 355 355 356 357 357 358 358 355 354 352 350 349 351 356 362 365 367 362 360 360 359 358 359 360 361 361 361 358 361 363 363 361 361 360 358 357 360 361 362 361 360 359
332 335 337 335 335 334 334 335 337 337 337 336 339 338 338 338 341 341 348 351 353 354 356 358 358 358 358 359 357 354 354 355 358 361 363 371 368 367 362 360 359 359 358 357 358 359 360 360 357 358 359 359 360 358 357 356 357 358 360 362 361 360 357
335 337 335 335 335 334 333 336 336 335 335 339 340 339 341 342 342 341 347 351 352 349 353 354 356 357 357 359 359 359 357 358 360 363 365 366 372 367 363 361 360 359 359 358 357 359 360 358 357 359 358 358 359 358 357 358 356 356 360 362 363 362 360
337 338 336 335 334 332 334 336 336 336 337 339 339 339 342 343 344 344 348 349 351 354 354 353 354 356 358 359 359 358 359 361 363 364 365 365 364 366 362 361 360 360 359 357 360 359 357 358 357 356 357 356 357 358 357 360 361 360 359 362 362 361 359
338 338 337 336 334 334 335 336 337 337 341 340 340 343 344 345 346 347 347 347 350 351 352 354 355 357 358 357 357 357 358 360 361 362 362 362 363 365 366 361 362 359 358 358 359 360 359 357 357 357 357 357 358 359 358 359 359 360 360 361 361 361 359
338 339 338 337 338 337 339 338 339 342 340 340 342 343 344 347 348 344 345 349 351 351 352 353 355 356 356 356 355 356 358 359 360 360 361 361 363 357 359 362 360 359 357 355 357 357 357 357 357 355 355 355 356 357 358 358 358 360 360 362 363 362 361
338 338 338 337 337 338 341 341 341 342 342 344 345 345 347 347 347 348 349 348 349 352 353 353 355 356 356 355 355 355 355 356 357 358 360 360 361 360 360 360 362 359 354 356 358 360 361 364 360 353 355 356 356 357 357 357 359 360 360 359 363 363 362
335 336 337 337 338 339 339 341 342 344 342 344 343 345 347 348 347 347 347 349 351 351 352 353 354 355 354 354 353 354 354 355 356 357 359 359 357 358 359 360 361 361 359 359 359 364 360 359 357 356 354 355 357 356 357 359 360 361 361 359 359 360 363
332 334 335 335 337 338 341 341 339 340 343 344 342 343 342 342 344 346 347 348 350 352 352 353 354 354 353 353 352 353 353 353 354 356 359 359 358 358 359 361 361 361 360 360 359 361 364 361 358 358 356 357 360 359 358 359 361 361 362 362 361 364 364
329 331 333 336 335 335 336 338 339 340 342 343 344 344 343 344 344 345 346 346 348 351 351 350 352 354 354 353 350 349 349 352 353 356 359 361 362 361 361 361 361 362 360 359 356 361 362 361 357 360 361 359 358 359 362 362 359 360 360 362 364 366 367
328 328 330 329 334 337 336 336 339 340 340 343 343 342 343 344 345 346 346 346 348 349 350 351 352 352 353 353 352 352 353 353 354 355 357 357 358 359 360 361 361 362 361 359 359 360 358 356 355 354 355 356 359 356 356 357 359 362 364 364 365 368 365
327 329 327 328 332 334 337 337 338 340 341 341 341 341 341 343 344 344 343 343 346 348 349 350 350 351 352 352 352 353 353 353 353 354 356 355 353 355 357 358 357 356 357 358 362 357 355 354 353 352 351 351 352 353 355 356 356 360 365 366 366 369 365
326 326 329 332 334 334 334 337 339 338 338 339 340 340 341 342 343 343 343 344 345 346 348 350 349 348 347 350 351 352 352 353 353 354 353 354 354 355 355 354 352 351 349 352 357 358 355 354 353 353 354 353 350 351 353 355 358 360 349 351 360 369 364
324 326 326 331 334 335 336 336 337 337 337 339 340 340 341 341 342 343 342 344 345 346 348 348 349 349 348 349 351 353 352 352 352 352 352 353 354 354 354 353 349 345 343 349 355 359 357 355 354 354 353 353 352 351 353 354 359 347 344 347 349 362 364
324 324 324 331 333 334 334 336 338 339 338 341 343 340 340 341 341 340 342 343 345 346 346 347 348 350 350 348 350 351 352 352 350 349 348 349 351 353 353 349 346 347 349 352 357 358 354 350 353 354 355 354 352 351 353 355 354 343 341 343 344 350 363
325 326 327 328 328 333 336 335 335 337 340 339 339 338 340 342 341 341 344 345 346 345 346 346 347 348 347 349 351 353 351 350 348 347 349 351 350 351 352 351 347 349 353 355 356 356 354 352 351 353 354 354 353 352 353 355 356 339 338 338 340 344 355
327 327 326 329 330 328 334 338 338 338 337 338 339 339 339 341 343 344 343 344 344 345 345 346 346 346 346 348 347 348 346 346 343 339 343 348 349 350 351 351 350 348 350 352 353 353 351 351 352 352 354 354 354 354 355 356 347 335 335 335 337 340 353
324 329 329 329 329 335 335 335 336 337 338 341 339 339 339 338 341 341 341 344 343 344 345 346 345 345 347 345 345 349 345 341 340 340 339 340 343 344 347 349 351 351 351 350 352 353 353 353 353 354 353 355 356 355 354 355 340 333 333 332 334 338 355
325 326 328 330 330 330 335 338 335 337 337 337 337 337 338 341 342 342 341 341 342 343 344 345 344 345 346 346 346 346 343 341 340 338 337 337 337 338 342 347 348 351 351 349 350 351 352 350 350 353 351 352 354 354 354 356 342 330 329 329 330 339 352
327 328 329 329 334 334 336 337 334 332 330 330 333 336 340 342 341 341 341 341 342 342 342 343 343 345 346 342 345 345 345 343 341 340 340 340 338 339 341 345 350 351 353 349 347 347 349 351 350 350 350 351 352 352 352 354 345 325 326 326 327 342 352
327 328 328 331 328 331 331 335 334 330 330 336 332 337 339 340 341 340 339 341 342 342 342 342 343 345 343 345 344 345 346 346 345 343 341 341 343 342 342 344 347 350 353 350 349 347 350 352 352 350 351 352 352 350 351 353 348 325 323 323 324 339 353
327 327 331 328 328 331 332 336 334 332 333 334 337 338 339 339 338 340 340 341 342 341 341 343 344 346 348 347 346 346 346 346 344 342 340 342 343 347 345 343 345 345 351 351 351 347 349 351 349 348 349 349 351 351 349 351 354 341 321 321 322 330 352
328 328 328 329 327 336 330 328 327 327 331 336 340 338 339 340 340 340 341 341 341 341 342 345 347 347 347 347 346 346 345 345 344 342 342 341 341 346 345 342 343 350 347 346 349 350 350 350 350 348 347 348 349 350 352 353 352 347 321 319 320 325 345
328 330 332 331 333 332 329 328 331 335 334 337 339 341 341 340 339 339 340 340 338 340 343 344 345 345 346 347 346 346 345 344 343 343 341 340 341 343 344 343 344 342 346 347 348 348 347 347 346 347 348 346 346 349 351 354 352 352 323 319 318 321 332
327 326 328 330 329 331 334 336 334 335 338 339 341 342 341 340 338 338 339 339 340 341 343 344 344 345 346 347 346 345 344 344 343 342 342 340 339 338 341 343 342 342 347 346 345 346 347 346 346 346 345 343 343 343 345 350 352 340 333 319 317 317 325
327 328 329 327 327 336 337 337 338 338 340 340 341 341 341 340 339 338 338 339 343 343 344 344 344 346 346 347 346 344 344 344 344 342 342 341 339 338 337 340 342 343 346 346 345 345 345 345 345 344 344 341 342 344 346 348 351 339 334 327 317 315 319
326 325 328 330 335 338 338 338 338 337 337 339 341 342 343 342 339 338 338 341 343 343 343 344 345 346 342 339 342 343 343 344 344 342 341 341 340 338 340 341 342 340 343 344 342 342 344 344 343 343 341 339 341 343 345 347 348 344 331 327 324 316 318
324 329 332 334 336 337 338 339 338 337 335 336 338 339 341 341 339 338 340 342 343 344 344 341 341 344 345 343 342 341 343 343 342 342 341 340 339 338 341 340 340 342 345 344 342 343 344 343 342 341 341 340 339 340 344 345 345 340 335 334 331 325 320
327 330 332 334 336 337 337 337 334 334 335 335 337 338 339 339 339 340 341 343 342 342 342 341 339 342 343 342 343 344 344 342 340 340 343 343 340 340 341 342 342 343 344 343 341 341 343 342 342 341 340 340 341 342 343 341 341 337 334 334 331 330 332
330 331 334 336 337 337 337 336 334 334 335 335 338 339 339 339 340 340 340 340 341 342 339 339 338 341 341 341 342 342 342 343 343 340 339 341 338 334 333 337 340 341 344 343 342 341 339 339 340 340 339 342 342 342 342 341 339 334 332 331 331 332 333
333 334 335 335 336 337 337 336 335 337 337 337 339 338 339 339 339 341 340 341 341 343 341 341 341 340 339 339 339 340 340 340 341 341 340 340 334 326 323 323 328 330 341 342 346 345 343 340 341 343 343 345 343 341 341 342 337 335 326 333 325 330 330
335 335 335 336 335 336 337 337 337 337 337 337 338 338 338 338 339 341 341 341 341 341 339 337 338 338 339 339 339 338 339 340 340 340 341 339 337 329 325 313 305 308 318 332 326 317 322 327 340 345 344 345 344 345 344 340 340 321 314 312 311 312 313
335 335 334 334 334 335 336 337 337 337 336 337 338 337 337 338 339 340 340 343 344 343 342 341 339 337 338 339 340 339 339 340 339 340 340 339 340 339 336 335 328 306 303 307 312 306 302 310 316 322 329 344 344 329 320 323 313 310 308 306 305 304 304
334 334 333 334 334 335 335 334 335 336 335 336 336 336 337 336 338 339 340 342 342 342 341 340 340 338 338 339 340 340 340 341 341 340 339 341 341 341 339 337 333 330 310 303 303 304 300 297 298 307 317 322 324 326 318 310 308 305 303 303 304 303 303
Wind_Speed
8 9 12 8 2 1 3 1 3 2 3 4 4 1 1 4 2 2 5 2 2 2 4 4 5 5 8 10 10 10 11 12 11 11 11 11 11 11 9 8 10 10 10 10 10 11 10 9 10 12 11 10 9 7 9 9 8 9 10 8 7 7 8
3 6 6 7 9 7 6 6 5 4 3 5 5 2 2 3 4 5 3 3 4 4 5 5 5 5 7 7 9 8 10 13 13 11 11 10 11 10 9 11 12 12 12 11 10 9 10 10 10 12 10 9 9 9 10 9 9 10 10 9 9 8 8
5 3 3 1 3 6 1 4 1 4 4 3 3 4 4 3 5 4 3 3 4 4 5 5 5 8 8 8 9 9 11 12 12 13 14 11 11 10 13 12 13 12 12 13 12 10 9 12 11 11 11 9 10 10 11 11 11 12 11 8 8 9 7
6 2 3 3 1 3 4 4 4 4 4 3 4 5 5 5 5 4 4 4 6 5 4 4 6 7 10 10 10 10 11 12 14 14 14 13 11 12 12 12 12 12 12 14 14 13 13 11 14 11 11 11 10 11 12 13 12 12 12 10 9 10 7
6 3 2 1 4 4 4 3 4 4 2 5 5 3 6 7 6 5 5 4 3 4 5 6 6 7 7 9 9 10 11 14 13 11 8 9 13 11 14 16 14 14 14 14 14 13 12 12 13 14 12 11 13 11 11 12 13 12 11 10 9 10 9
6 4 3 2 3 4 6 7 2 4 5 6 4 6 7 8 6 8 6 6 6 5 6 6 7 7 8 8 9 11 12 12 11 10 10 5 7 6 13 14 15 15 15 15 13 14 15 15 16 15 15 15 15 15 13 13 13 13 11 10 10 9 10
7 4 2 1 4 5 7 5 6 6 6 5 5 6 6 6 7 8 6 6 7 8 8 8 8 7 7 7 8 9 12 13 12 11 9 11 7 9 13 14 15 15 14 13 14 13 12 12 16 15 15 16 14 15 13 11 12 12 11 10 10 10 9
6 3 1 4 5 7 5 5 6 6 6 5 6 7 6 7 7 8 7 7 7 7 6 7 7 7 7 8 8 11 11 11 11 10 9 11 10 9 13 15 15 15 13 13 13 14 16 15 16 16 16 16 15 14 14 12 11 11 10 10 10 11 11
5 1 2 4 6 5 4 5 5 5 4 5 6 6 6 6 6 7 8 9 7 8 8 8 8 7 7 8 9 11 11 11 10 10 11 12 10 10 10 10 10 10 13 13 11 13 13 16 16 15 14 14 13 13 14 13 12 11 10 10 11 12 12
3 2 3 4 5 4 4 5 6 4 6 6 5 6 6 5 5 8 8 7 7 8 9 9 7 7 8 9 11 11 10 10 11 12 11 10 7 7 11 9 11 7 9 13 11 13 13 15 14 11 13 14 13 13 12 13 13 12 12 10 11 12 13
2 3 4 5 5 5 5 5 4 4 5 4 4 5 5 5 6 6 7 7 7 7 8 8 7 7 8 9 10 11 10 11 10 10 9 9 6 8 9 9 11 7 11 11 13 12 9 5 4 9 13 13 14 14 13 13 14 14 13 12 10 11 11
3 3 3 4 6 6 5 4 4 4 4 4 5 5 5 6 6 6 6 7 7 8 7 7 8 8 8 8 10 10 12 11 10 10 8 5 7 9 9 10 10 10 10 11 12 8 8 10 9 10 15 14 14 14 14 13 13 14 13 13 13 12 11
2 2 3 6 5 4 5 4 5 5 5 4 6 6 7 7 7 7 7 7 8 7 7 7 7 8 8 8 10 10 11 11 11 10 8 7 8 8 9 9 9 9 9 10 12 11 8 8 11 11 13 14 12 12 12 13 11 11 11 11 11 9 10
4 4 4 3 4 5 5 5 5 5 5 6 5 5 7 7 7 7 7 8 7 7 8 7 7 7 6 7 9 10 12 10 10 10 10 9 8 8 9 9 9 9 8 7 11 11 8 6 7 9 9 11 10 9 6 5 6 8 10 10 9 8 7
5 5 5 6 5 5 5 5 5 6 6 6 6 7 7 7 7 7 8 8 8 7 8 8 8 9 9 8 8 9 10 10 9 9 9 10 10 10 9 10 9 7 7 9 10 8 4 2 4 8 8 10 6 7 7 7 6 5 7 8 7 7 6
5 5 6 7 6 5 5 5 5 6 6 7 7 7 7 7 7 7 9 9 9 9 9 8 9 9 10 9 9 9 10 9 9 9 8 7 11 11 10 9 9 8 8 10 8 6 8 10 9 9 10 9 8 7 6 4 4 11 13 9 7 6 6
5 7 7 6 5 4 4 5 5 6 7 7 7 7 7 7 7 8 9 9 9 9 9 9 10 10 9 10 10 9 10 10 9 8 9 10 10 10 9 7 5 6 12 12 11 8 8 8 8 8 8 9 10 9 8 8 9 19 17 14 13 8 8
7 7 7 5 5 5 5 6 6 6 7 7 7 7 7 8 8 8 9 9 9 9 9 10 10 10 10 11 10 9 10 10 10 10 10 10 11 10 8 7 7 9 9 12 13 9 7 9 9 8 9 9 7 9 9 9 17 23 17 17 16 13 9
8 8 8 7 6 6 6 6 5 6 7 6 5 6 9 9 8 9 9 9 8 9 10 10 10 10 9 10 11 11 10 10 10 11 12 12 12 11 8 6 8 9 9 11 10 9 9 10 10 10 10 11 12 12 11 11 16 18 18 18 18 17 12
8 8 9 7 7 6 5 5 5 5 6 7 8 9 8 8 9 9 8 8 8 9 10 10 10 10 11 11 11 10 9 8 9 12 13 12 11 11 11 11 11 9 9 7 7 9 7 8 11 11 11 11 11 12 12 12 13 16 18 18 18 17 13
6 7 8 6 7 9 5 4 5 6 7 8 8 8 8 8 7 7 8 8 10 9 10 10 11 11 10 9 10 9 6 7 8 10 13 12 12 12 12 12 10 9 9 8 8 7 9 10 10 11 12 11 10 10 11 10 15 15 18 19 20 20 16
7 6 6 7 11 7 6 6 5 6 6 6 7 8 8 9 8 9 9 9 10 10 10 10 11 11 8 7 10 8 6 7 8 10 12 14 16 15 15 13 12 10 8 9 8 7 7 9 10 10 11 11 10 11 12 10 15 16 17 18 19 19 12
10 13 11 10 9 9 8 6 7 6 7 8 8 9 9 8 8 9 10 11 11 11 11 11 11 10 9 8 7 7 7 6 8 11 11 11 13 16 17 13 11 10 9 9 7 8 9 9 9 8 9 12 11 11 10 9 12 18 18 18 19 14 10
13 12 12 12 9 9 8 7 7 9 11 13 11 9 8 8 9 10 11 11 11 11 11 11 11 10 7 6 7 7 7 7 8 10 10 10 14 14 15 14 11 9 7 8 8 8 10 8 6 7 9 10 10 11 10 10 9 14 16 18 19 16 12
11 12 13 11 12 10 10 7 8 12 13 9 10 9 10 11 11 11 10 10 10 10 11 12 11 9 8 6 6 8 8 9 8 8 11 13 12 11 13 14 12 9 7 8 7 9 7 6 6 6 7 8 9 11 13 10 10 13 15 15 17 15 9
13 13 11 12 13 11 10 8 8 11 10 9 9 10 11 12 12 11 10 11 10 11 12 11 10 8 8 7 7 7 8 8 11 12 11 13 13 11 9 10 12 11 9 8 7 8 8 8 8 8 7 7 8 8 10 10 8 10 15 16 17 18 10
13 13 12 11 12 10 10 11 12 12 10 8 8 10 10 10 10 9 10 11 11 12 11 10 9 8 9 8 9 10 10 9 10 12 11 12 13 11 9 10 13 10 9 10 8 8 8 8 6 6 7 7 8 9 10 9 10 9 14 16 17 18 13
13 12 10 11 11 11 12 12 9 9 11 10 10 9 8 9 10 11 12 11 13 13 12 11 10 9 9 9 10 10 9 10 10 11 11 11 10 12 8 10 11 12 9 8 8 9 9 7 6 6 4 5 7 8 10 9 9 6 10 15 16 17 12
12 12 11 10 10 11 9 8 9 10 10 10 10 8 8 10 12 12 12 13 13 13 11 10 10 10 9 9 9 10 10 11 10 10 7 9 10 10 12 11 10 12 8 8 9 8 8 8 7 6 5 4 8 10 9 7 7 11 10 14 17 16 15
12 11 9 11 12 11 10 9 9 10 10 10 9 9 10 11 11 12 13 15 12 12 11 10 10 9 9 8 9 9 10 10 10 10 8 8 8 10 13 14 11 10 7 7 7 7 7 6 6 7 7 7 8 8 7 7 7 9 12 11 14 15 14
12 13 10 10 10 10 9 9 11 11 12 11 10 8 8 9 11 13 15 13 10 10 10 10 10 9 10 12 11 11 9 9 8 7 8 6 8 9 11 11 10 9 7 6 6 6 5 4 5 5 5 4 4 5 6 7 5 4 9 14 14 13 15
12 10 11 11 11 10 10 10 10 11 12 13 12 11 9 10 11 14 12 12 10 9 8 10 11 10 9 9 10 10 11 10 10 9 7 7 6 9 11 10 9 8 5 5 6 5 5 5 6 5 6 8 8 7 4 4 4 4 5 6 9 8 15
11 11 12 12 12 11 10 10 11 12 12 13 12 11 11 12 12 12 11 12 12 10 8 9 11 11 9 10 10 10 8 9 9 10 7 6 5 6 7 7 7 6 5 5 5 6 6 5 6 5 5 5 8 8 5 4 4 4 6 7 7 6 11
11 11 11 11 11 12 12 11 11 11 12 12 11 10 11 12 12 12 12 13 12 6 6 8 9 10 10 12 9 8 9 7 13 11 7 6 4 4 4 3 4 6 6 6 7 6 5 4 4 5 5 4 5 6 7 7 6 6 7 8 9 9 9
10 11 11 11 12 11 10 11 12 12 12 12 10 11 11 12 12 12 13 12 12 8 8 8 11 11 11 10 9 9 8 8 7 7 7 6 2 3 3 5 5 5 4 2 4 3 3 3 2 3 5 5 6 6 7 7 7 7 8 11 14 15 12
10 11 11 11 10 11 11 11 11 12 13 11 10 10 11 13 13 11 12 11 9 8 9 11 11 12 10 9 8 10 10 8 7 7 6 6 1 3 2 1 2 4 5 6 12 13 8 6 2 2 3 3 4 2 3 5 3 11 13 14 14 15 16
10 10 11 11 12 11 11 11 11 12 13 12 11 11 11 11 11 11 12 10 6 6 6 8 8 10 9 9 8 10 11 9 8 7 5 4 5 3 2 1 2 12 15 12 12 11 13 6 4 4 4 3 3 4 3 11 16 18 15 16 18 21 22
10 11 11 10 10 11 12 13 12 12 12 11 11 12 11 12 11 11 11 10 7 8 9 8 7 9 10 9 9 10 9 7 8 7 7 5 4 3 2 3 3 5 8 11 11 13 14 13 12 6 4 7 9 8 6 11 18 19 18 20 23 24 25
Wind_Direction
171 174 176 140 124 71 230 193 272 214 234 237 261 210 322 267 181 202 228 216 195 285 298 291 270 246 233 233 235 232 231 227 219 217 213 215 218 216 209 204 217 223 230 232 225 226 225 218 209 211 216 206 211 208 228 244 259 259 238 228 229 239 247
153 131 132 136 145 164 182 177 212 221 203 246 235 133 269 307 336 306 341 351 313 308 301 285 282 275 276 274 270 251 228 231 233 220 215 210 217 222 212 208 213 220 226 235 239 225 223 217 219 225 206 199 208 212 217 224 241 251 244 230 222 225 233
186 174 128 131 152 119 151 247 253 278 262 282 326 332 324 331 305 312 315 314 319 316 290 275 273 278 277 275 271 265 266 261 242 217 215 209 200 202 214 217 219 223 222 226 234 234 221 223 220 225 219 207 211 213 214 222 229 240 240 229 230 226 222
68 353 42 110 274 140 216 223 231 257 273 279 333 322 317 311 307 344 9 313 282 274 288 304 296 286 278 271 266 269 269 256 255 254 230 219 209 197 207 213 221 218 217 220 228 231 231 224 222 221 221 215 212 210 210 217 223 231 236 221 221 227 220
147 180 140 70 272 270 226 230 238 235 318 333 309 339 320 325 332 320 278 276 300 316 305 296 289 280 274 272 273 271 267 271 272 270 267 220 214 192 198 208 211 216 217 219 222 228 229 221 226 221 214 215 217 211 211 211 218 221 228 221 218 221 222
164 164 131 199 279 311 313 279 277 356 342 314 338 339 327 319 321 307 344 349 324 306 292 291 293 294 288 285 280 279 279 279 281 287 297 279 223 199 209 209 215 216 216 217 221 227 225 226 228 222 215 216 216 219 217 214 212 215 218 218 218 214 219
108 110 132 334 297 292 282 353 346 333 324 339 350 326 319 323 328 324 319 320 320 309 304 293 285 284 285 286 286 283 280 277 277 280 282 289 250 211 215 220 220 220 218 218 220 218 223 226 230 227 222 219 214 215 215 213 213 212 210 210 209 209 218
103 114 311 309 309 293 354 345 317 320 329 342 331 311 320 334 323 315 328 316 301 293 293 296 295 292 293 291 286 283 282 281 280 283 284 279 272 248 238 228 227 223 220 219 217 216 219 226 229 230 228 223 217 213 213 208 215 205 204 206 203 209 214
119 166 309 300 292 319 328 316 315 312 347 327 308 320 321 311 314 312 304 302 306 306 296 289 286 283 283 283 283 282 283 285 284 284 284 280 273 266 258 256 268 284 251 222 214 219 221 225 226 228 228 227 221 214 212 210 209 210 209 200 203 210 213
142 220 255 272 290 291 312 304 297 338 333 307 322 314 309 306 308 301 303 299 292 294 298 295 290 287 284 284 286 289 289 288 291 288 284 288 298 294 279 261 255 226 276 282 248 223 221 230 236 237 239 232 223 220 214 209 208 207 209 204 196 203 209
186 228 237 259 282 301 295 283 311 319 287 307 313 312 305 309 297 288 289 298 298 294 291 288 285 286 286 286 286 284 282 280 283 286 283 281 266 262 252 255 257 236 239 239 251 242 229 249 287 260 249 233 222 218 219 216 210 206 204 206 193 198 203
208 202 240 262 264 262 279 295 283 274 304 310 313 308 311 300 295 293 297 295 297 291 290 289 290 286 288 287 284 284 283 285 286 284 283 267 274 270 264 255 243 245 246 244 254 251 213 213 221 230 243 244 232 224 221 220 212 203 203 204 200 196 197
195 231 255 258 259 267 260 262 289 310 299 313 307 307 305 301 297 298 294 292 293 293 289 289 287 285 287 290 288 288 289 289 286 283 272 254 259 256 257 257 249 243 242 242 247 250 235 204 211 226 240 236 236 230 223 222 211 208 204 204 200 188 177
275 265 259 267 275 288 301 300 298 299 308 297 297 296 290 293 295 298 301 297 294 293 293 292 289 284 276 280 285 288 287 287 289 285 279 269 257 254 253 248 251 245 250 271 260 255 243 234 239 242 248 269 265 266 278 283 255 226 215 214 195 181 170
293 288 298 291 295 284 287 291 293 300 294 294 293 291 294 298 301 302 300 296 292 292 292 294 290 283 274 270 270 275 280 286 290 290 284 281 281 269 260 263 259 255 244 238 243 237 242 241 251 274 295 295 334 0 340 319 284 289 239 211 192 175 145
278 300 289 284 282 280 278 292 303 291 308 305 304 307 307 305 304 303 300 296 295 295 295 296 288 284 279 273 271 272 276 283 284 283 284 277 276 278 279 280 277 281 285 264 242 228 229 237 236 229 228 229 231 223 222 217 244 248 232 186 187 168 155
296 288 284 273 266 284 311 287 291 306 298 301 303 302 300 300 299 294 292 292 296 296 294 294 290 283 283 280 280 281 284 284 282 278 271 271 268 268 271 264 269 263 248 248 246 227 232 221 220 223 232 236 231 222 205 195 196 228 207 198 181 171 165
295 288 289 315 336 318 315 327 313 307 305 305 303 305 306 298 291 294 295 296 296 296 294 292 289 286 285 281 279 282 287 289 286 273 272 272 272 272 266 267 243 219 231 248 241 234 227 230 225 223 226 232 233 234 228 215 210 216 199 188 185 178 172
294 305 314 313 307 330 313 294 305 304 299 297 311 309 297 296 300 299 296 294 297 298 293 289 287 287 278 277 285 287 287 290 298 292 285 279 280 279 275 256 260 256 235 225 228 230 222 234 233 219 216 213 210 218 218 217 218 216 198 190 188 183 169
295 301 300 305 311 301 297 307 299 311 330 331 309 298 301 302 294 287 290 298 298 293 291 289 287 284 287 289 291 288 294 302 295 288 282 277 280 274 269 253 242 247 251 242 232 218 215 221 235 232 221 217 214 219 220 206 214 201 194 192 191 187 180
296 271 280 301 313 302 303 350 4 348 319 301 305 305 298 293 295 306 306 304 297 292 288 286 286 285 288 295 293 284 286 280 291 296 294 288 280 277 268 259 243 225 230 246 246 222 195 215 225 229 231 224 217 224 225 213 205 202 194 189 186 187 186
262 278 321 336 328 356 19 352 328 313 308 313 303 308 313 310 313 309 304 299 293 291 288 288 287 284 285 285 276 265 268 285 294 290 290 293 294 283 275 271 265 256 237 227 230 237 225 214 212 220 231 230 218 222 229 223 201 197 197 188 185 181 188
336 334 342 321 325 351 339 341 320 324 321 311 311 309 304 310 315 310 302 298 296 294 291 288 286 286 278 277 276 279 290 291 283 287 288 288 288 283 278 272 267 258 237 227 218 227 221 220 214 204 222 237 230 223 229 230 201 193 192 191 184 178 190
325 319 319 330 347 331 329 321 323 318 317 307 305 314 320 321 313 303 298 295 294 293 293 292 291 296 297 285 280 281 281 266 264 269 267 265 267 267 274 271 266 262 246 227 222 226 228 222 219 208 216 225 233 228 226 232 214 197 195 190 183 182 184
329 329 327 328 323 325 323 326 333 314 301 300 318 325 319 313 305 300 300 302 300 300 299 297 298 312 298 284 287 280 284 285 277 268 273 272 261 262 272 278 272 260 245 239 224 233 233 216 216 211 218 219 218 228 232 230 225 200 200 194 187 189 186
321 320 320 327 325 327 325 327 315 297 301 325 327 320 313 307 305 306 300 292 291 289 288 291 301 295 271 278 281 277 270 279 288 291 283 274 275 264 254 261 269 256 255 249 238 235 228 215 202 205 206 216 226 218 221 229 232 203 197 195 192 194 186
312 315 324 329 325 333 323 315 302 305 322 324 322 320 316 312 304 289 289 289 288 287 289 295 301 306 302 294 293 290 293 293 286 284 277 278 280 280 278 271 267 260 245 253 249 236 234 215 202 202 218 209 217 232 227 218 218 213 200 195 194 194 187
316 321 319 322 325 321 304 301 323 338 326 323 320 322 315 306 292 294 294 294 290 293 299 305 313 311 301 288 291 293 295 296 291 286 281 281 281 285 274 270 272 263 258 256 247 240 235 222 210 211 204 187 223 236 236 230 226 205 206 202 197 193 169
311 321 322 321 314 307 343 359 341 327 323 318 314 302 295 291 293 297 296 290 292 297 302 311 309 306 294 283 288 295 297 296 289 286 272 283 290 294 286 261 250 257 254 252 254 245 234 218 211 191 160 167 225 237 236 227 215 199 189 200 199 183 182
319 317 318 314 327 356 0 335 333 323 317 315 312 311 300 299 302 299 294 289 295 300 305 309 308 294 285 280 290 298 301 297 295 297 290 285 297 296 286 284 282 265 244 247 252 249 242 240 224 199 184 192 222 237 237 227 215 174 178 189 197 180 182
317 319 325 349 360 339 339 330 324 323 315 312 307 289 286 296 300 301 296 296 302 308 311 308 308 307 308 308 305 302 298 297 292 292 295 296 291 276 272 271 274 265 252 244 242 235 231 214 183 178 147 165 218 220 209 205 214 138 165 187 192 178 170
319 326 340 339 332 338 327 323 321 317 311 309 309 308 305 303 304 301 298 305 307 309 312 320 313 309 304 300 300 305 311 312 310 298 298 306 300 292 287 279 266 256 245 244 238 217 223 197 198 188 170 165 206 226 214 165 162 140 157 163 147 157 144
331 338 332 330 325 322 319 315 311 309 308 304 307 307 308 306 303 300 303 306 310 323 333 321 315 309 304 305 308 314 315 318 311 311 303 287 276 255 269 289 277 258 246 234 242 236 220 211 212 184 164 197 195 202 164 159 156 136 127 126 116 126 132
337 327 322 318 316 315 309 306 307 305 304 303 303 308 308 306 303 306 307 308 310 317 312 301 297 309 310 314 313 316 319 302 309 315 317 333 8 344 325 304 311 284 246 230 225 217 205 196 202 179 174 197 153 159 157 162 158 147 142 136 137 141 132
330 319 313 312 313 311 305 305 307 306 304 304 308 305 303 303 305 305 305 306 313 321 303 310 313 315 319 318 320 318 318 305 296 302 317 331 57 7 1 342 330 320 304 277 279 223 205 187 174 138 162 193 159 175 173 162 162 175 155 152 153 147 140
315 308 312 314 310 306 304 304 304 304 302 301 305 306 309 306 304 301 302 313 320 325 324 319 313 319 319 323 321 319 315 313 311 322 331 329 235 198 249 262 95 46 352 346 2 6 48 81 43 68 131 154 185 137 141 135 168 133 142 142 133 115 110
309 312 316 315 312 308 304 305 304 301 301 304 313 310 303 302 305 307 308 311 307 301 296 305 317 311 316 323 321 314 317 321 328 328 334 326 320 249 262 245 61 42 39 40 22 28 21 44 98 68 55 124 121 39 26 135 127 134 133 123 117 114 114
313 311 312 313 311 309 310 308 312 312 310 312 309 306 306 308 309 306 309 314 309 309 317 311 307 307 314 320 316 317 319 326 331 334 335 330 318 320 314 339 9 22 37 49 56 51 48 31 15 12 105 118 123 109 54 102 119 120 119 121 121 122 124